sat.trackr.live / text

‹ back to catalog

STARLINK-4348

NORAD 53075 · 2022-077AJ

PAYLOAD ACTIVE UNKNOWN

§ Identity

Operator
Country
US
Launch date
2022-07-11
Launch site
AFWTR
Launch vehicle
Mass (kg)
RCS (m²)

Purposes: comms

External: N2YO · Heavens-Above · Gunter

§ Orbital elements

Epoch: 2026-05-24T23:15:40.023936Z

Period
95.64 min
Inclination
97.4491°
Eccentricity
0.0001148
Mean motion
15.05647203 rev/d
Perigee alt
548.7 km
Apogee alt
550.3 km
Semi-major
6,927.7 km
B*
6.4500e-5
RAAN
324.9882°
Arg perigee
123.5634°
Mean anomaly
236.5703°
Rev number
21,239

§ Raw data

STARLINK-43481 53075U 22077AJ  26144.96921324  .00000872  00000+0  64500-4 0  99962 53075  97.4491 324.9882 0001148 123.5634 236.5703 15.05647203212396

JSON: /api/v1/satellites/53075 · /tle

For live sub-satellite position, see the globe view (requires WebGL).

§ Visibility from observer

Set your observer location to see the next 7 days of passes ≥ 10°. The values pass through the URL so the page stays shareable.

No JS? Fill the form by hand. The geolocation button needs JavaScript.